QPF
0.04 0.04 0.03 0.02 0.02 0.02 0.03 0.03 0.03 0.03 0.02 0.02 0.03 0.03 0.03 0.04 0.03 0.03 0.04 0.05 0.05 0.04 0.04 0.04 0.04 0.05 0.06 0.07 0.07 0.09 0.11 0.11 0.09 0.06 0.04 0.03 0.04 0.07 0.09 0.06 0.03 0.02 0.03
0.03 0.03 0.03 0.03 0.03 0.03 0.04 0.05 0.04 0.04 0.04 0.03 0.03 0.04 0.03 0.03 0.02 0.02 0.03 0.06 0.05 0.03 0.03 0.03 0.03 0.02 0.03 0.04 0.05 0.06 0.08 0.09 0.10 0.09 0.06 0.04 0.04 0.05 0.06 0.06 0.04 0.02 0.02
0.02 0.02 0.02 0.02 0.02 0.03 0.04 0.04 0.05 0.05 0.04 0.03 0.02 0.03 0.03 0.02 0.02 0.02 0.03 0.05 0.04 0.02 0.03 0.03 0.02 0.02 0.02 0.03 0.03 0.04 0.07 0.10 0.11 0.10 0.09 0.07 0.05 0.03 0.03 0.03 0.02 0.03 0.02
0.01 0.01 0.02 0.02 0.02 0.01 0.01 0.01 0.02 0.03 0.03 0.02 0.02 0.02 0.02 0.02 0.02 0.01 0.02 0.02 0.02 0.01 0.01 0.01 0.01 0.02 0.02 0.02 0.03 0.03 0.03 0.06 0.08 0.09 0.08 0.07 0.06 0.04 0.03 0.03 0.03 0.03 0.03
0.01 0.01 0.03 0.04 0.03 0.02 0.02 0.02 0.02 0.02 0.01 0.01 0.02 0.02 0.02 0.02 0.01 0.01 0.02 0.02 0.02 0.02 0.01 0.01 0.01 0.01 0.01 0.02 0.02 0.02 0.03 0.03 0.04 0.06 0.06 0.07 0.07 0.06 0.04 0.04 0.03 0.03 0.03
0.01 0.01 0.03 0.05 0.05 0.04 0.03 0.02 0.02 0.02 0.02 0.02 0.02 0.02 0.02 0.01 0.01 0.01 0.01 0.02 0.02 0.02 0.01 0.01 0.01 0.01 0.01 0.01 0.01 0.01 0.02 0.02 0.03 0.05 0.06 0.06 0.06 0.06 0.06 0.05 0.04 0.04 0.04
0.02 0.01 0.01 0.04 0.03 0.03 0.03 0.02 0.02 0.02 0.01 0.01 0.01 0.02 0.02 0.01 0.01 0.01 0.01 0.01 0.01 0.01 0.01 0.01 0.01 0.01 0.01 0.01 0.01 0.01 0.01 0.02 0.03 0.04 0.05 0.05 0.06 0.07 0.07 0.05 0.05 0.05 0.05
0.02 0.01 0.01 0.01 0.01 0.01 0.02 0.02 0.02 0.02 0.01 0.01 0.01 0.01 0.01 0.01 0.01 0.01 0.01 0.01 0.01 0.01 0.01 0.01 0.01 0.01 0.01 0.01 0.02 0.02 0.02 0.02 0.03 0.03 0.04 0.05 0.05 0.05 0.06 0.06 0.05 0.05 0.04
0.01 0.01 0.01 0.02 0.02 0.01 0.02 0.02 0.02 0.02 0.01 0.01 0.01 0.01 0.01 0.01 0.02 0.02 0.02 0.02 0.02 0.01 0.01 0.01 0.01 0.01 0.01 0.01 0.01 0.02 0.02 0.02 0.02 0.02 0.03 0.04 0.03 0.03 0.03 0.04 0.05 0.04 0.04
0.01 0.01 0.01 0.02 0.02 0.02 0.02 0.02 0.01 0.01 0.01 0.01 0.01 0.01 0.01 0.01 0.02 0.02 0.02 0.02 0.02 0.01 0.01 0.01 0.01 0.00 0.00 0.01 0.01 0.02 0.03 0.02 0.02 0.02 0.03 0.03 0.03 0.02 0.02 0.03 0.04 0.05 0.05
0.01 0.01 0.01 0.02 0.02 0.02 0.01 0.01 0.01 0.01 0.01 0.00 0.01 0.01 0.01 0.01 0.01 0.01 0.01 0.01 0.01 0.01 0.01 0.00 0.00 0.00 0.00 0.00 0.00 0.01 0.01 0.01 0.02 0.03 0.02 0.03 0.03 0.02 0.03 0.04 0.04 0.05 0.06
0.01 0.01 0.01 0.01 0.01 0.01 0.01 0.01 0.01 0.01 0.01 0.00 0.00 0.00 0.00 0.01 0.00 0.00 0.00 0.00 0.00 0.00 0.00 0.00 0.00 0.00 0.00 0.00 0.00 0.01 0.01 0.01 0.02 0.03 0.03 0.04 0.03 0.03 0.03 0.04 0.04 0.04 0.04
0.01 0.01 0.01 0.01 0.01 0.01 0.01 0.01 0.01 0.01 0.01 0.00 0.00 0.00 0.00 0.01 0.01 0.00 0.00 0.00 0.00 0.00 0.00 0.00 0.00 0.00 0.00 0.00 0.00 0.01 0.01 0.02 0.02 0.03 0.03 0.03 0.03 0.03 0.04 0.04 0.03 0.03 0.02
0.02 0.01 0.01 0.01 0.02 0.02 0.01 0.01 0.01 0.01 0.01 0.01 0.01 0.01 0.00 0.00 0.00 0.01 0.01 0.01 0.00 0.00 0.00 0.00 0.00 0.00 0.00 0.00 0.00 0.00 0.01 0.02 0.02 0.03 0.03 0.03 0.03 0.03 0.04 0.03 0.03 0.03 0.02
0.02 0.01 0.01 0.01 0.02 0.03 0.02 0.01 0.00 0.00 0.01 0.01 0.01 0.00 0.00 0.00 0.00 0.01 0.01 0.01 0.01 0.01 0.00 0.00 0.01 0.01 0.01 0.01 0.01 0.00 0.01 0.02 0.02 0.02 0.02 0.02 0.02 0.02 0.02 0.01 0.02 0.02 0.02
0.02 0.02 0.02 0.02 0.01 0.02 0.02 0.01 0.01 0.00 0.00 0.00 0.00 0.00 0.00 0.00 0.00 0.00 0.01 0.01 0.00 0.00 0.00 0.00 0.01 0.01 0.01 0.01 0.01 0.00 0.00 0.01 0.01 0.01 0.01 0.01 0.01 0.01 0.01 0.01 0.01 0.01 0.02
0.03 0.03 0.03 0.04 0.03 0.02 0.01 0.01 0.01 0.00 0.01 0.00 0.00 0.00 0.00 0.00 0.00 0.00 0.00 0.01 0.01 0.01 0.01 0.01 0.01 0.01 0.01 0.01 0.01 0.01 0.01 0.00 0.00 0.01 0.01 0.01 0.00 0.01 0.00 0.00 0.01 0.01 0.02
0.02 0.02 0.03 0.03 0.03 0.03 0.02 0.01 0.01 0.00 0.00 0.00 0.00 0.01 0.01 0.00 0.00 0.00 0.01 0.01 0.01 0.02 0.02 0.02 0.02 0.02 0.01 0.01 0.01 0.01 0.01 0.01 0.01 0.01 0.01 0.01 0.00 0.00 0.01 0.01 0.01 0.01 0.02
0.01 0.01 0.01 0.02 0.02 0.02 0.01 0.01 0.01 0.00 0.00 0.00 0.00 0.00 0.01 0.00 0.00 0.00 0.01 0.01 0.01 0.01 0.01 0.01 0.01 0.02 0.02 0.01 0.01 0.01 0.01 0.01 0.01 0.01 0.01 0.00 0.01 0.01 0.01 0.01 0.01 0.02 0.03
0.01 0.01 0.01 0.01 0.01 0.01 0.01 0.00 0.00 0.00 0.00 0.00 0.00 0.00 0.00 0.00 0.00 0.00 0.01 0.01 0.01 0.01 0.01 0.01 0.01 0.01 0.01 0.01 0.01 0.01 0.01 0.01 0.01 0.01 0.02 0.02 0.02 0.02 0.02 0.02 0.02 0.02 0.02
0.00 0.00 0.00 0.00 0.00 0.00 0.00 0.00 0.00 0.00 0.00 0.00 0.00 0.00 0.01 0.00 0.00 0.00 0.00 0.00 0.01 0.01 0.01 0.01 0.01 0.01 0.01 0.01 0.01 0.01 0.01 0.01 0.01 0.01 0.01 0.01 0.02 0.02 0.02 0.01 0.01 0.01 0.01
0.01 0.00 0.00 0.00 0.00 0.00 0.00 0.00 0.00 0.00 0.00 0.00 0.00 0.00 0.00 0.00 0.00 0.00 0.00 0.00 0.00 0.01 0.01 0.01 0.01 0.01 0.01 0.01 0.01 0.01 0.01 0.01 0.00 0.01 0.01 0.01 0.02 0.02 0.02 0.02 0.02 0.01 0.01
0.01 0.00 0.00 0.00 0.00 0.00 0.00 0.00 0.00 0.00 0.00 0.00 0.00 0.00 0.00 0.00 0.00 0.00 0.01 0.01 0.01 0.01 0.01 0.01 0.01 0.01 0.01 0.01 0.01 0.01 0.01 0.01 0.01 0.01 0.01 0.02 0.02 0.03 0.03 0.03 0.03 0.03 0.03
0.00 0.00 0.00 0.00 0.00 0.00 0.00 0.00 0.00 0.00 0.00 0.00 0.00 0.01 0.01 0.00 0.00 0.00 0.01 0.01 0.01 0.01 0.01 0.01 0.01 0.01 0.01 0.02 0.02 0.02 0.02 0.01 0.01 0.01 0.01 0.01 0.01 0.01 0.02 0.02 0.03 0.03 0.03
0.00 0.00 0.00 0.00 0.00 0.00 0.00 0.00 0.00 0.00 0.00 0.00 0.00 0.01 0.00 0.00 0.00 0.00 0.00 0.01 0.01 0.01 0.01 0.01 0.01 0.01 0.01 0.01 0.01 0.02 0.02 0.03 0.03 0.02 0.02 0.02 0.02 0.02 0.02 0.02 0.03 0.03 0.04
0.00 0.00 0.00 0.00 0.00 0.00 0.00 0.00 0.00 0.00 0.00 0.00 0.00 0.00 0.00 0.00 0.00 0.01 0.01 0.01 0.01 0.01 0.01 0.01 0.01 0.01 0.01 0.01 0.01 0.02 0.02 0.03 0.03 0.03 0.03 0.02 0.02 0.03 0.03 0.03 0.03 0.04 0.04
MSLP
1014.70 1014.60 1014.51 1014.42 1014.32 1014.20 1014.05 1013.89 1013.71 1013.52 1013.34 1013.16 1013.02 1012.91 1012.84 1012.84 1012.91 1013.04 1013.25 1013.51 1013.81 1014.12 1014.43 1014.70 1014.93 1015.10 1015.22 1015.30 1015.35 1015.38 1015.43 1015.50 1015.61 1015.75 1015.93 1016.14 1016.39 1016.67 1016.96 1017.27 1017.59 1017.90 1018.18
1015.13 1015.04 1014.97 1014.91 1014.84 1014.76 1014.66 1014.55 1014.41 1014.25 1014.08 1013.90 1013.72 1013.56 1013.43 1013.36 1013.35 1013.43 1013.58 1013.81 1014.10 1014.41 1014.72 1015.01 1015.26 1015.44 1015.57 1015.63 1015.66 1015.66 1015.67 1015.69 1015.74 1015.83 1015.96 1016.13 1016.33 1016.57 1016.82 1017.09 1017.37 1017.64 1017.90
1015.55 1015.47 1015.41 1015.37 1015.33 1015.30 1015.25 1015.20 1015.12 1015.02 1014.89 1014.72 1014.54 1014.35 1014.19 1014.06 1014.00 1014.02 1014.13 1014.32 1014.59 1014.90 1015.22 1015.53 1015.78 1015.98 1016.10 1016.16 1016.15 1016.12 1016.07 1016.04 1016.03 1016.05 1016.12 1016.23 1016.38 1016.55 1016.75 1016.96 1017.18 1017.39 1017.60
1015.98 1015.90 1015.84 1015.80 1015.79 1015.78 1015.79 1015.80 1015.79 1015.75 1015.67 1015.56 1015.40 1015.22 1015.03 1014.88 1014.78 1014.76 1014.84 1015.00 1015.25 1015.55 1015.87 1016.18 1016.44 1016.64 1016.75 1016.78 1016.75 1016.67 1016.57 1016.46 1016.39 1016.34 1016.34 1016.39 1016.47 1016.58 1016.71 1016.85 1017.00 1017.15 1017.29
1016.43 1016.34 1016.27 1016.22 1016.20 1016.22 1016.26 1016.31 1016.36 1016.39 1016.38 1016.32 1016.21 1016.06 1015.89 1015.73 1015.62 1015.58 1015.62 1015.76 1015.99 1016.27 1016.58 1016.88 1017.13 1017.31 1017.40 1017.41 1017.33 1017.20 1017.04 1016.88 1016.73 1016.62 1016.56 1016.54 1016.56 1016.61 1016.67 1016.75 1016.84 1016.92 1017.01
1016.91 1016.81 1016.71 1016.64 1016.60 1016.60 1016.65 1016.73 1016.82 1016.90 1016.95 1016.95 1016.89 1016.79 1016.65 1016.51 1016.41 1016.36 1016.39 1016.51 1016.71 1016.97 1017.26 1017.53 1017.75 1017.90 1017.96 1017.93 1017.81 1017.63 1017.42 1017.20 1017.00 1016.84 1016.72 1016.65 1016.62 1016.62 1016.65 1016.68 1016.71 1016.74 1016.78
1017.42 1017.29 1017.16 1017.05 1016.97 1016.95 1016.98 1017.06 1017.17 1017.28 1017.37 1017.42 1017.42 1017.36 1017.26 1017.16 1017.07 1017.02 1017.05 1017.15 1017.33 1017.55 1017.80 1018.04 1018.22 1018.33 1018.35 1018.27 1018.11 1017.89 1017.64 1017.39 1017.15 1016.96 1016.81 1016.72 1016.66 1016.64 1016.63 1016.64 1016.64 1016.64 1016.64
1017.93 1017.78 1017.62 1017.46 1017.34 1017.27 1017.27 1017.32 1017.42 1017.54 1017.65 1017.74 1017.77 1017.76 1017.70 1017.63 1017.56 1017.53 1017.55 1017.63 1017.77 1017.96 1018.16 1018.35 1018.49 1018.55 1018.53 1018.42 1018.23 1017.99 1017.72 1017.45 1017.20 1017.00 1016.85 1016.75 1016.70 1016.67 1016.66 1016.66 1016.65 1016.64 1016.61
1018.41 1018.25 1018.06 1017.87 1017.71 1017.59 1017.55 1017.56 1017.64 1017.74 1017.85 1017.95 1018.00 1018.02 1017.99 1017.94 1017.89 1017.87 1017.88 1017.94 1018.04 1018.18 1018.33 1018.47 1018.56 1018.58 1018.52 1018.39 1018.19 1017.95 1017.68 1017.42 1017.19 1017.01 1016.88 1016.80 1016.75 1016.74 1016.74 1016.75 1016.74 1016.72 1016.69
1018.83 1018.68 1018.48 1018.28 1018.08 1017.94 1017.85 1017.83 1017.86 1017.94 1018.03 1018.12 1018.18 1018.21 1018.20 1018.17 1018.13 1018.10 1018.09 1018.12 1018.18 1018.27 1018.37 1018.44 1018.48 1018.47 1018.39 1018.25 1018.06 1017.83 1017.59 1017.36 1017.17 1017.02 1016.92 1016.86 1016.85 1016.85 1016.87 1016.88 1016.87 1016.85 1016.81
1019.17 1019.04 1018.87 1018.67 1018.47 1018.31 1018.20 1018.14 1018.15 1018.19 1018.26 1018.33 1018.39 1018.41 1018.40 1018.37 1018.33 1018.28 1018.25 1018.24 1018.26 1018.29 1018.32 1018.35 1018.34 1018.30 1018.20 1018.06 1017.88 1017.69 1017.49 1017.30 1017.15 1017.04 1016.98 1016.95 1016.95 1016.97 1016.99 1017.01 1017.00 1016.97 1016.91
1019.42 1019.33 1019.20 1019.03 1018.85 1018.70 1018.58 1018.51 1018.49 1018.51 1018.56 1018.61 1018.65 1018.67 1018.66 1018.62 1018.56 1018.49 1018.42 1018.37 1018.33 1018.30 1018.27 1018.24 1018.19 1018.12 1018.01 1017.88 1017.72 1017.56 1017.40 1017.26 1017.15 1017.07 1017.03 1017.02 1017.03 1017.05 1017.06 1017.06 1017.04 1017.00 1016.92
1019.57 1019.54 1019.45 1019.33 1019.20 1019.07 1018.97 1018.91 1018.89 1018.90 1018.93 1018.97 1018.99 1019.00 1018.98 1018.92 1018.84 1018.75 1018.64 1018.53 1018.43 1018.34 1018.25 1018.16 1018.07 1017.96 1017.84 1017.72 1017.58 1017.44 1017.32 1017.21 1017.13 1017.07 1017.04 1017.02 1017.02 1017.02 1017.02 1016.99 1016.95 1016.87 1016.77
1019.64 1019.65 1019.62 1019.56 1019.47 1019.39 1019.32 1019.28 1019.26 1019.28 1019.31 1019.34 1019.37 1019.36 1019.33 1019.26 1019.16 1019.04 1018.89 1018.73 1018.57 1018.41 1018.26 1018.11 1017.97 1017.84 1017.70 1017.57 1017.44 1017.32 1017.21 1017.12 1017.05 1016.99 1016.95 1016.92 1016.89 1016.85 1016.81 1016.75 1016.67 1016.57 1016.44
1019.62 1019.67 1019.69 1019.67 1019.63 1019.59 1019.56 1019.54 1019.55 1019.57 1019.61 1019.66 1019.68 1019.69 1019.65 1019.58 1019.46 1019.31 1019.12 1018.92 1018.70 1018.48 1018.27 1018.07 1017.89 1017.71 1017.55 1017.41 1017.27 1017.16 1017.05 1016.96 1016.87 1016.80 1016.73 1016.66 1016.60 1016.52 1016.44 1016.35 1016.23 1016.11 1015.95
1019.54 1019.60 1019.64 1019.65 1019.64 1019.63 1019.62 1019.63 1019.66 1019.70 1019.76 1019.81 1019.86 1019.87 1019.84 1019.77 1019.65 1019.48 1019.27 1019.03 1018.77 1018.51 1018.24 1017.99 1017.76 1017.56 1017.37 1017.20 1017.06 1016.93 1016.81 1016.70 1016.59 1016.49 1016.38 1016.28 1016.17 1016.06 1015.94 1015.81 1015.68 1015.53 1015.37
1019.40 1019.45 1019.48 1019.50 1019.49 1019.49 1019.49 1019.51 1019.55 1019.61 1019.68 1019.76 1019.82 1019.85 1019.84 1019.78 1019.66 1019.49 1019.27 1019.01 1018.73 1018.43 1018.13 1017.85 1017.59 1017.35 1017.13 1016.95 1016.78 1016.63 1016.49 1016.36 1016.22 1016.09 1015.95 1015.81 1015.66 1015.52 1015.38 1015.23 1015.09 1014.94 1014.79
1019.23 1019.24 1019.24 1019.22 1019.20 1019.18 1019.18 1019.19 1019.23 1019.30 1019.38 1019.47 1019.55 1019.60 1019.61 1019.58 1019.48 1019.32 1019.10 1018.84 1018.55 1018.24 1017.93 1017.63 1017.34 1017.09 1016.86 1016.65 1016.47 1016.30 1016.14 1015.98 1015.83 1015.66 1015.49 1015.32 1015.15 1014.99 1014.83 1014.68 1014.54 1014.40 1014.26
1019.04 1019.00 1018.94 1018.88 1018.81 1018.76 1018.73 1018.72 1018.75 1018.81 1018.89 1018.99 1019.08 1019.16 1019.19 1019.18 1019.10 1018.97 1018.77 1018.53 1018.25 1017.95 1017.64 1017.34 1017.05 1016.79 1016.56 1016.35 1016.16 1015.98 1015.80 1015.63 1015.45 1015.27 1015.08 1014.89 1014.71 1014.54 1014.38 1014.23 1014.09 1013.97 1013.84
1018.85 1018.75 1018.64 1018.52 1018.40 1018.30 1018.23 1018.19 1018.19 1018.23 1018.31 1018.40 1018.50 1018.58 1018.64 1018.65 1018.60 1018.49 1018.33 1018.12 1017.86 1017.58 1017.29 1017.01 1016.74 1016.49 1016.27 1016.07 1015.88 1015.70 1015.52 1015.34 1015.15 1014.96 1014.76 1014.56 1014.37 1014.20 1014.04 1013.89 1013.76 1013.64 1013.52
1018.70 1018.55 1018.38 1018.21 1018.05 1017.90 1017.78 1017.70 1017.67 1017.68 1017.73 1017.80 1017.90 1017.98 1018.04 1018.07 1018.04 1017.96 1017.83 1017.65 1017.43 1017.19 1016.93 1016.68 1016.44 1016.21 1016.01 1015.82 1015.65 1015.48 1015.30 1015.13 1014.94 1014.74 1014.54 1014.34 1014.15 1013.97 1013.80 1013.66 1013.52 1013.39 1013.27
1018.59 1018.41 1018.21 1018.01 1017.80 1017.61 1017.45 1017.33 1017.26 1017.23 1017.25 1017.29 1017.36 1017.43 1017.49 1017.52 1017.50 1017.44 1017.34 1017.19 1017.00 1016.79 1016.57 1016.35 1016.14 1015.95 1015.77 1015.61 1015.46 1015.30 1015.14 1014.98 1014.79 1014.60 1014.40 1014.20 1014.00 1013.81 1013.64 1013.47 1013.32 1013.17 1013.02
1018.54 1018.35 1018.15 1017.92 1017.70 1017.48 1017.29 1017.14 1017.02 1016.95 1016.92 1016.93 1016.96 1017.00 1017.04 1017.05 1017.03 1016.97 1016.88 1016.74 1016.58 1016.40 1016.20 1016.02 1015.84 1015.68 1015.53 1015.39 1015.26 1015.13 1014.99 1014.84 1014.67 1014.49 1014.29 1014.09 1013.88 1013.67 1013.48 1013.29 1013.10 1012.91 1012.72
1018.52 1018.36 1018.16 1017.95 1017.72 1017.49 1017.28 1017.09 1016.94 1016.82 1016.75 1016.70 1016.69 1016.69 1016.68 1016.66 1016.62 1016.55 1016.45 1016.32 1016.16 1015.99 1015.82 1015.65 1015.49 1015.36 1015.23 1015.12 1015.01 1014.90 1014.79 1014.65 1014.50 1014.33 1014.14 1013.93 1013.72 1013.50 1013.27 1013.05 1012.82 1012.59 1012.35
1018.50 1018.37 1018.21 1018.02 1017.80 1017.57 1017.35 1017.13 1016.95 1016.79 1016.66 1016.57 1016.50 1016.44 1016.39 1016.33 1016.25 1016.15 1016.03 1015.88 1015.72 1015.55 1015.38 1015.21 1015.07 1014.94 1014.84 1014.75 1014.66 1014.58 1014.48 1014.37 1014.24 1014.09 1013.91 1013.71 1013.48 1013.24 1012.99 1012.74 1012.47 1012.20 1011.92
1018.42 1018.34 1018.22 1018.05 1017.85 1017.63 1017.40 1017.17 1016.95 1016.75 1016.58 1016.43 1016.31 1016.20 1016.10 1015.99 1015.87 1015.73 1015.58 1015.40 1015.22 1015.03 1014.86 1014.69 1014.55 1014.42 1014.33 1014.25 1014.19 1014.13 1014.06 1013.98 1013.88 1013.74 1013.58 1013.39 1013.16 1012.92 1012.65 1012.37 1012.08 1011.77 1011.47
Thickness
5647 5642 5637 5634 5630 5627 5623 5619 5615 5612 5608 5606 5604 5602 5600 5598 5596 5594 5594 5592 5591 5590 5589 5589 5588 5588 5588 5589 5589 5588 5589 5589 5588 5590 5590 5589 5587 5588 5589 5591 5593 5594 5596
5642 5638 5634 5630 5626 5623 5619 5615 5611 5608 5605 5602 5600 5597 5595 5593 5591 5590 5588 5587 5586 5585 5584 5583 5583 5583 5582 5583 5583 5583 5583 5582 5583 5582 5583 5583 5582 5583 5584 5585 5588 5590 5591
5638 5634 5630 5626 5622 5619 5615 5611 5607 5604 5602 5599 5597 5594 5592 5589 5587 5585 5584 5583 5582 5580 5579 5578 5578 5578 5578 5579 5578 5579 5579 5579 5578 5578 5578 5578 5579 5579 5580 5581 5584 5584 5586
5634 5630 5626 5623 5619 5615 5611 5607 5604 5601 5599 5596 5594 5591 5589 5587 5585 5582 5580 5578 5577 5576 5576 5575 5575 5575 5574 5574 5575 5574 5574 5574 5574 5573 5574 5574 5575 5575 5575 5577 5579 5581 5582
5629 5627 5623 5619 5616 5611 5607 5604 5601 5598 5597 5594 5591 5589 5587 5585 5582 5579 5577 5576 5574 5574 5573 5573 5573 5571 5569 5569 5572 5571 5571 5571 5571 5571 5572 5572 5572 5571 5572 5574 5576 5577 5579
5626 5623 5620 5616 5612 5608 5604 5601 5599 5596 5594 5592 5590 5588 5585 5583 5577 5573 5572 5573 5573 5573 5572 5572 5572 5571 5568 5566 5565 5565 5564 5566 5567 5567 5568 5568 5567 5569 5569 5571 5573 5574 5575
5622 5619 5616 5613 5609 5606 5604 5601 5597 5595 5593 5590 5588 5586 5583 5578 5574 5571 5570 5570 5572 5571 5571 5570 5572 5572 5569 5569 5567 5565 5564 5562 5561 5562 5565 5565 5566 5567 5567 5569 5569 5571 5572
5619 5616 5614 5611 5608 5605 5602 5599 5596 5593 5591 5589 5587 5584 5581 5577 5572 5570 5569 5570 5572 5571 5570 5570 5569 5569 5569 5567 5568 5569 5569 5567 5564 5562 5562 5563 5565 5565 5565 5566 5567 5568 5571
5617 5614 5612 5609 5606 5603 5600 5598 5595 5593 5591 5589 5587 5584 5581 5577 5572 5570 5568 5572 5572 5572 5571 5570 5569 5568 5564 5563 5566 5568 5569 5568 5565 5563 5562 5562 5562 5561 5561 5564 5567 5570 5572
5615 5612 5610 5607 5604 5602 5599 5596 5595 5593 5591 5589 5586 5584 5581 5578 5573 5571 5568 5574 5574 5574 5573 5572 5568 5566 5563 5562 5565 5568 5568 5568 5568 5568 5565 5564 5564 5563 5562 5562 5566 5569 5571
5613 5611 5608 5605 5603 5601 5598 5596 5594 5592 5590 5588 5586 5585 5582 5579 5575 5572 5570 5573 5574 5575 5575 5575 5572 5566 5564 5563 5563 5566 5566 5565 5567 5568 5569 5569 5568 5568 5567 5566 5567 5568 5570
5611 5608 5606 5604 5603 5601 5597 5595 5594 5592 5590 5588 5587 5586 5585 5582 5578 5575 5571 5570 5569 5573 5574 5575 5573 5567 5565 5564 5565 5565 5565 5563 5568 5570 5571 5571 5571 5572 5571 5570 5569 5568 5568
5609 5606 5604 5602 5601 5599 5597 5596 5595 5593 5592 5591 5590 5589 5588 5586 5582 5577 5574 5572 5571 5572 5574 5571 5569 5567 5567 5568 5567 5567 5566 5569 5571 5572 5573 5573 5573 5573 5572 5571 5571 5570 5569
5607 5605 5603 5602 5601 5599 5598 5598 5597 5595 5594 5592 5591 5590 5589 5587 5585 5583 5580 5578 5574 5574 5575 5574 5571 5571 5571 5571 5572 5573 5574 5574 5574 5574 5575 5575 5575 5574 5573 5574 5573 5573 5573
5607 5605 5604 5604 5602 5600 5599 5597 5597 5594 5592 5589 5590 5589 5587 5586 5582 5576 5575 5578 5577 5576 5573 5576 5579 5580 5580 5581 5581 5581 5579 5578 5576 5576 5576 5576 5576 5576 5576 5576 5574 5574 5573
5607 5605 5606 5605 5604 5603 5601 5599 5594 5592 5589 5586 5584 5582 5585 5581 5578 5576 5574 5572 5571 5569 5571 5578 5581 5582 5582 5583 5583 5583 5582 5581 5579 5578 5578 5577 5577 5577 5577 5577 5577 5575 5575
5607 5606 5607 5607 5606 5605 5604 5602 5599 5595 5591 5589 5587 5584 5582 5581 5579 5578 5576 5574 5573 5570 5575 5581 5582 5583 5583 5584 5584 5583 5583 5582 5581 5579 5579 5578 5578 5577 5577 5577 5577 5576 5575
5608 5607 5606 5607 5607 5606 5605 5604 5602 5601 5599 5598 5593 5589 5586 5584 5582 5580 5578 5576 5581 5580 5582 5584 5584 5585 5585 5584 5584 5584 5583 5583 5582 5580 5579 5578 5578 5577 5576 5576 5576 5575 5575
5610 5610 5609 5609 5609 5608 5606 5605 5604 5602 5601 5600 5600 5597 5591 5589 5586 5584 5580 5583 5587 5588 5588 5587 5587 5586 5586 5585 5584 5583 5582 5581 5581 5579 5579 5577 5577 5576 5576 5576 5576 5574 5571
5611 5608 5607 5609 5610 5609 5607 5606 5605 5603 5603 5602 5601 5600 5597 5595 5594 5593 5589 5589 5589 5589 5589 5588 5587 5586 5585 5584 5583 5583 5582 5581 5580 5579 5578 5578 5577 5576 5575 5574 5574 5573 5573
5615 5613 5606 5609 5610 5609 5608 5607 5605 5604 5603 5602 5602 5600 5593 5594 5594 5594 5593 5592 5591 5590 5589 5587 5586 5585 5584 5584 5583 5582 5581 5580 5580 5579 5578 5577 5576 5575 5574 5573 5572 5571 5571
5618 5617 5615 5613 5611 5610 5608 5608 5607 5605 5604 5603 5602 5601 5595 5594 5596 5595 5594 5592 5590 5589 5587 5585 5585 5584 5583 5582 5581 5579 5578 5578 5577 5576 5575 5575 5574 5573 5573 5571 5570 5568 5567
5618 5617 5616 5614 5613 5609 5608 5608 5607 5605 5604 5603 5602 5600 5598 5596 5595 5594 5592 5591 5588 5586 5584 5583 5581 5581 5580 5578 5577 5575 5574 5573 5572 5571 5569 5568 5569 5569 5568 5566 5565 5564 5563
5619 5618 5616 5615 5613 5612 5610 5608 5607 5605 5604 5602 5600 5599 5597 5595 5593 5591 5589 5588 5586 5584 5582 5580 5578 5576 5574 5572 5570 5570 5569 5566 5564 5563 5561 5560 5559 5560 5560 5560 5559 5559 5558
5621 5619 5617 5616 5614 5612 5610 5608 5607 5605 5603 5601 5599 5598 5596 5595 5592 5590 5588 5586 5583 5580 5578 5576 5573 5572 5570 5567 5565 5563 5560 5556 5553 5551 5550 5551 5551 5551 5552 5552 5552 5552 5551
5622 5620 5618 5616 5614 5612 5609 5607 5606 5604 5602 5600 5598 5597 5594 5592 5590 5587 5585 5582 5579 5577 5574 5572 5569 5567 5564 5562 5559 5555 5551 5548 5545 5543 5541 5542 5543 5545 5545 5545 5544 5544 5544